Time,TemperatureF,DewpointF,PressureIn,WindDirection,WindDirectionDegrees,WindSpeedMPH,WindSpeedGustMPH,Humidity,HourlyPrecipIn,Conditions,Clouds,dailyrainin,SolarRadiationWatts/m^2,SoftwareType,DateUTC
2013-05-29 00:01:00,64.0,63.0,-100.00,NNE,30,4.0,11.0,96,0.02,,,0.11,0.000000,,2013-05-29 10:01:00,
2013-05-29 00:22:00,64.0,63.0,-100.00,NNE,30,4.0,11.0,96,0.02,,,0.11,0.000000,,2013-05-29 10:22:00,
2013-05-29 00:33:00,64.0,63.0,-100.00,NNE,30,4.0,11.0,96,0.02,,,0.11,0.000000,,2013-05-29 10:33:00,
2013-05-29 00:42:00,64.0,63.0,-100.00,NNE,30,4.0,11.0,96,0.02,,,0.11,0.000000,,2013-05-29 10:42:00,
2013-05-29 00:53:00,64.0,63.0,-100.00,NNE,30,4.0,11.0,96,0.02,,,0.11,0.000000,,2013-05-29 10:53:00,
2013-05-29 01:01:00,64.0,62.0,-100.00,NNE,33,5.0,7.0,94,0.00,,,0.11,0.000000,,2013-05-29 11:01:00,
2013-05-29 01:22:00,64.0,62.0,-100.00,NNE,33,5.0,7.0,94,0.00,,,0.11,0.000000,,2013-05-29 11:22:00,
2013-05-29 01:32:00,64.0,62.0,-100.00,NNE,33,5.0,7.0,94,0.00,,,0.11,0.000000,,2013-05-29 11:32:00,
2013-05-29 01:42:00,64.0,62.0,-100.00,NNE,33,5.0,7.0,94,0.00,,,0.11,0.000000,,2013-05-29 11:42:00,
2013-05-29 01:52:00,64.0,62.0,-100.00,NNE,33,5.0,7.0,94,0.00,,,0.11,0.000000,,2013-05-29 11:52:00,
2013-05-29 02:01:00,64.0,62.0,-100.00,ENE,76,3.0,7.0,92,0.00,,,0.11,0.000000,,2013-05-29 12:01:00,
2013-05-29 02:22:00,64.0,62.0,-100.00,ENE,76,3.0,7.0,92,0.00,,,0.11,0.000000,,2013-05-29 12:22:00,
2013-05-29 02:32:00,64.0,62.0,-100.00,ENE,76,3.0,7.0,92,0.00,,,0.11,0.000000,,2013-05-29 12:32:00,
2013-05-29 02:42:00,64.0,62.0,-100.00,ENE,76,3.0,7.0,92,0.00,,,0.11,0.000000,,2013-05-29 12:42:00,
2013-05-29 02:52:00,64.0,62.0,-100.00,ENE,76,3.0,7.0,92,0.00,,,0.11,0.000000,,2013-05-29 12:52:00,
2013-05-29 03:01:00,63.0,62.0,-100.00,NNE,23,4.0,10.0,96,0.00,,,-99.99,0.000000,,2013-05-29 13:01:00,
2013-05-29 03:22:00,63.0,62.0,-100.00,NNE,23,4.0,10.0,96,0.00,,,-99.99,0.000000,,2013-05-29 13:22:00,
2013-05-29 03:32:00,63.0,62.0,-100.00,NNE,23,4.0,10.0,96,0.00,,,-99.99,0.000000,,2013-05-29 13:32:00,
2013-05-29 03:42:00,63.0,62.0,-100.00,NNE,23,4.0,10.0,96,0.00,,,-99.99,0.000000,,2013-05-29 13:42:00,
2013-05-29 03:53:00,63.0,62.0,-100.00,NNE,23,4.0,10.0,96,0.00,,,-99.99,0.000000,,2013-05-29 13:53:00,
2013-05-29 04:01:00,63.0,62.0,-100.00,East,97,1.0,5.0,96,0.00,,,0.11,0.000000,,2013-05-29 14:01:00,
2013-05-29 04:22:00,63.0,62.0,-100.00,East,97,1.0,5.0,96,0.00,,,0.11,0.000000,,2013-05-29 14:22:00,
2013-05-29 04:32:00,63.0,62.0,-100.00,East,97,1.0,5.0,96,0.00,,,0.11,0.000000,,2013-05-29 14:32:00,
2013-05-29 04:42:00,63.0,62.0,-100.00,East,97,1.0,5.0,96,0.00,,,0.11,0.000000,,2013-05-29 14:42:00,
2013-05-29 04:52:00,63.0,62.0,-100.00,East,97,1.0,5.0,96,0.00,,,0.11,0.000000,,2013-05-29 14:52:00,
2013-05-29 05:01:00,63.0,62.0,-100.00,NE,45,6.0,8.0,98,0.00,,,0.11,0.000000,,2013-05-29 15:01:00,
2013-05-29 05:22:00,63.0,62.0,-100.00,NE,45,6.0,8.0,98,0.00,,,0.11,0.000000,,2013-05-29 15:22:00,
2013-05-29 05:33:00,63.0,62.0,-100.00,NE,45,6.0,8.0,98,0.00,,,0.11,0.000000,,2013-05-29 15:33:00,
2013-05-29 05:42:00,63.0,62.0,-100.00,NE,45,6.0,8.0,98,0.00,,,0.11,0.000000,,2013-05-29 15:42:00,
2013-05-29 05:53:00,63.0,62.0,-100.00,NE,45,6.0,8.0,98,0.00,,,0.11,0.000000,,2013-05-29 15:53:00,
2013-05-29 06:01:00,63.0,62.0,-100.00,NNE,28,6.0,8.0,96,0.02,,,0.13,1.000000,,2013-05-29 16:01:00,
2013-05-29 06:22:00,63.0,62.0,-100.00,NNE,28,6.0,8.0,96,0.02,,,0.13,1.000000,,2013-05-29 16:22:00,
2013-05-29 06:33:00,63.0,62.0,-100.00,NNE,28,6.0,8.0,96,0.02,,,0.13,1.000000,,2013-05-29 16:33:00,
2013-05-29 06:42:00,63.0,62.0,-100.00,NNE,28,6.0,8.0,96,0.02,,,0.13,1.000000,,2013-05-29 16:42:00,
2013-05-29 06:52:00,63.0,62.0,-100.00,NNE,28,6.0,8.0,96,0.02,,,0.13,1.000000,,2013-05-29 16:52:00,
2013-05-29 07:01:00,64.0,63.0,-100.00,North,1,7.0,10.0,95,0.02,,,0.15,18.000000,,2013-05-29 17:01:00,
2013-05-29 07:22:00,64.0,63.0,-100.00,North,1,7.0,10.0,95,0.02,,,0.15,18.000000,,2013-05-29 17:22:00,
2013-05-29 07:32:00,64.0,63.0,-100.00,North,1,7.0,10.0,95,0.02,,,0.15,18.000000,,2013-05-29 17:32:00,
2013-05-29 07:42:00,64.0,63.0,-100.00,North,1,7.0,10.0,95,0.02,,,0.15,18.000000,,2013-05-29 17:42:00,
2013-05-29 07:52:00,64.0,63.0,-100.00,North,1,7.0,10.0,95,0.02,,,0.15,18.000000,,2013-05-29 17:52:00,
2013-05-29 08:01:00,69.0,65.0,-100.00,NE,40,5.0,10.0,86,0.01,,,0.16,124.000000,,2013-05-29 18:01:00,
2013-05-29 08:22:00,69.0,65.0,-100.00,NE,40,5.0,10.0,86,0.01,,,0.16,124.000000,,2013-05-29 18:22:00,
2013-05-29 08:32:00,69.0,65.0,-100.00,NE,40,5.0,10.0,86,0.01,,,0.16,124.000000,,2013-05-29 18:32:00,
2013-05-29 08:42:00,69.0,65.0,-100.00,NE,40,5.0,10.0,86,0.01,,,0.16,124.000000,,2013-05-29 18:42:00,
2013-05-29 08:52:00,69.0,65.0,-100.00,NE,40,5.0,10.0,86,0.01,,,0.16,124.000000,,2013-05-29 18:52:00,
2013-05-29 09:01:00,68.0,67.0,-100.00,ESE,108,6.0,11.0,96,0.00,,,0.16,201.000000,,2013-05-29 19:01:00,
2013-05-29 09:22:00,68.0,67.0,-100.00,ESE,108,6.0,11.0,96,0.00,,,0.16,201.000000,,2013-05-29 19:22:00,
2013-05-29 09:32:00,68.0,67.0,-100.00,ESE,108,6.0,11.0,96,0.00,,,0.16,201.000000,,2013-05-29 19:32:00,
2013-05-29 09:44:00,68.0,67.0,-100.00,ESE,108,6.0,11.0,96,0.00,,,0.16,201.000000,,2013-05-29 19:44:00,
2013-05-29 09:53:00,68.0,67.0,-100.00,ESE,108,6.0,11.0,96,0.00,,,0.16,201.000000,,2013-05-29 19:53:00,
2013-05-29 10:01:00,68.0,67.0,-100.00,ESE,122,8.0,13.0,96,0.00,,,0.16,232.000000,,2013-05-29 20:01:00,
2013-05-29 10:23:00,68.0,67.0,-100.00,ESE,122,8.0,13.0,96,0.00,,,0.16,232.000000,,2013-05-29 20:23:00,
2013-05-29 10:33:00,68.0,67.0,-100.00,ESE,122,8.0,13.0,96,0.00,,,0.16,232.000000,,2013-05-29 20:33:00,
2013-05-29 10:42:00,68.0,67.0,-100.00,ESE,122,8.0,13.0,96,0.00,,,0.16,232.000000,,2013-05-29 20:42:00,
2013-05-29 10:52:00,68.0,67.0,-100.00,ESE,122,8.0,13.0,96,0.00,,,0.16,232.000000,,2013-05-29 20:52:00,
2013-05-29 11:01:00,67.0,66.0,-100.00,ESE,119,10.0,15.0,98,0.00,,,0.16,174.000000,,2013-05-29 21:01:00,
2013-05-29 11:22:00,67.0,66.0,-100.00,ESE,119,10.0,15.0,98,0.00,,,0.16,174.000000,,2013-05-29 21:22:00,
2013-05-29 11:33:00,67.0,66.0,-100.00,ESE,119,10.0,15.0,98,0.00,,,0.16,174.000000,,2013-05-29 21:33:00,
2013-05-29 11:44:00,67.0,66.0,-100.00,ESE,119,10.0,15.0,98,0.00,,,0.16,174.000000,,2013-05-29 21:44:00,
2013-05-29 11:53:00,67.0,66.0,-100.00,ESE,119,10.0,15.0,98,0.00,,,0.16,174.000000,,2013-05-29 21:53:00,
2013-05-29 12:01:00,68.0,67.0,-100.00,SE,131,11.0,18.0,98,0.00,,,0.16,191.000000,,2013-05-29 22:01:00,
2013-05-29 12:23:00,68.0,67.0,-100.00,SE,131,11.0,18.0,98,0.00,,,0.16,191.000000,,2013-05-29 22:23:00,
2013-05-29 12:34:00,68.0,67.0,-100.00,SE,131,11.0,18.0,98,0.00,,,0.16,191.000000,,2013-05-29 22:34:00,
2013-05-29 12:42:00,68.0,67.0,-100.00,SE,131,11.0,18.0,98,0.00,,,0.16,191.000000,,2013-05-29 22:42:00,
2013-05-29 12:53:00,68.0,67.0,-100.00,SE,131,11.0,18.0,98,0.00,,,0.16,191.000000,,2013-05-29 22:53:00,
2013-05-29 13:01:00,70.0,67.0,-100.00,SE,139,13.0,20.0,91,0.00,,,0.16,312.000000,,2013-05-29 23:01:00,
2013-05-29 13:22:00,70.0,67.0,-100.00,SE,139,13.0,20.0,91,0.00,,,0.16,312.000000,,2013-05-29 23:22:00,
2013-05-29 13:33:00,70.0,67.0,-100.00,SE,139,13.0,20.0,91,0.00,,,0.16,312.000000,,2013-05-29 23:33:00,
2013-05-29 13:42:00,70.0,67.0,-100.00,SE,139,13.0,20.0,91,0.00,,,0.16,312.000000,,2013-05-29 23:42:00,
2013-05-29 13:53:00,70.0,67.0,-100.00,SE,139,13.0,20.0,91,0.00,,,0.16,312.000000,,2013-05-29 23:53:00,
2013-05-29 14:01:00,67.0,66.0,-100.00,SE,142,12.0,20.0,95,0.00,,,0.16,203.000000,,2013-05-30 00:01:00,
2013-05-29 14:22:00,67.0,66.0,-100.00,SE,142,12.0,20.0,95,0.00,,,0.16,203.000000,,2013-05-30 00:22:00,
2013-05-29 14:32:00,67.0,66.0,-100.00,SE,142,12.0,20.0,95,0.00,,,0.16,203.000000,,2013-05-30 00:32:00,
2013-05-29 14:42:00,67.0,66.0,-100.00,SE,142,12.0,20.0,95,0.00,,,0.16,203.000000,,2013-05-30 00:42:00,
2013-05-29 14:52:00,67.0,66.0,-100.00,SE,142,12.0,20.0,95,0.00,,,0.16,203.000000,,2013-05-30 00:52:00,
2013-05-29 15:01:00,67.0,66.0,-100.00,SSE,148,11.0,18.0,98,0.00,,,0.16,72.000000,,2013-05-30 01:01:00,
2013-05-29 15:22:00,67.0,66.0,-100.00,SSE,148,11.0,18.0,98,0.00,,,0.16,72.000000,,2013-05-30 01:22:00,
2013-05-29 15:32:00,67.0,66.0,-100.00,SSE,148,11.0,18.0,98,0.00,,,0.16,72.000000,,2013-05-30 01:32:00,
2013-05-29 15:42:00,67.0,66.0,-100.00,SSE,148,11.0,18.0,98,0.00,,,0.16,72.000000,,2013-05-30 01:42:00,
2013-05-29 15:52:00,67.0,66.0,-100.00,SSE,148,11.0,18.0,98,0.00,,,0.16,72.000000,,2013-05-30 01:52:00,
2013-05-29 16:01:00,71.0,67.0,-100.00,SE,135,5.0,16.0,88,0.00,,,0.16,191.000000,,2013-05-30 02:01:00,
2013-05-29 16:22:00,71.0,67.0,-100.00,SE,135,5.0,16.0,88,0.00,,,0.16,191.000000,,2013-05-30 02:22:00,
2013-05-29 16:32:00,71.0,67.0,-100.00,SE,135,5.0,16.0,88,0.00,,,0.16,191.000000,,2013-05-30 02:32:00,
2013-05-29 16:42:00,71.0,67.0,-100.00,SE,135,5.0,16.0,88,0.00,,,0.16,191.000000,,2013-05-30 02:42:00,
2013-05-29 16:52:00,71.0,67.0,-100.00,SE,135,5.0,16.0,88,0.00,,,0.16,191.000000,,2013-05-30 02:52:00,
2013-05-29 17:01:00,66.0,65.0,-100.00,West,274,3.0,13.0,98,0.00,,,0.12,134.000000,,2013-05-30 03:01:00,
2013-05-29 17:21:00,66.0,65.0,-100.00,West,274,3.0,13.0,98,0.00,,,0.12,134.000000,,2013-05-30 03:21:00,
2013-05-29 17:33:00,66.0,65.0,-100.00,West,274,3.0,13.0,98,0.00,,,0.12,134.000000,,2013-05-30 03:33:00,
2013-05-29 17:43:00,66.0,65.0,-100.00,West,274,3.0,13.0,98,0.00,,,0.12,134.000000,,2013-05-30 03:43:00,
2013-05-29 17:53:00,66.0,65.0,-100.00,West,274,3.0,13.0,98,0.00,,,0.12,134.000000,,2013-05-30 03:53:00,
2013-05-29 18:01:00,67.0,62.0,-100.00,NNE,14,13.0,18.0,85,0.00,,,0.12,62.000000,,2013-05-30 04:01:00,
2013-05-29 18:23:00,67.0,62.0,-100.00,NNE,14,13.0,18.0,85,0.00,,,0.12,62.000000,,2013-05-30 04:23:00,
2013-05-29 18:33:00,67.0,62.0,-100.00,NNE,14,13.0,18.0,85,0.00,,,0.12,62.000000,,2013-05-30 04:33:00,
2013-05-29 18:42:00,67.0,62.0,-100.00,NNE,14,13.0,18.0,85,0.00,,,0.12,62.000000,,2013-05-30 04:42:00,
2013-05-29 18:53:00,67.0,62.0,-100.00,NNE,14,13.0,18.0,85,0.00,,,0.12,62.000000,,2013-05-30 04:53:00,
2013-05-29 19:01:00,65.0,61.0,-100.00,NNE,15,14.0,22.0,87,0.00,,,0.12,8.000000,,2013-05-30 05:01:00,
2013-05-29 19:22:00,65.0,61.0,-100.00,NNE,15,14.0,22.0,87,0.00,,,0.12,8.000000,,2013-05-30 05:22:00,
2013-05-29 19:32:00,65.0,61.0,-100.00,NNE,15,14.0,22.0,87,0.00,,,0.12,8.000000,,2013-05-30 05:32:00,
2013-05-29 19:42:00,65.0,61.0,-100.00,NNE,15,14.0,22.0,87,0.00,,,0.12,8.000000,,2013-05-30 05:42:00,
2013-05-29 19:52:00,65.0,61.0,-100.00,NNE,15,14.0,22.0,87,0.00,,,0.12,8.000000,,2013-05-30 05:52:00,
2013-05-29 20:01:00,65.0,61.0,-100.00,NNE,12,14.0,23.0,86,0.00,,,0.10,0.000000,,2013-05-30 06:01:00,
2013-05-29 20:22:00,65.0,61.0,-100.00,NNE,12,14.0,23.0,86,0.00,,,0.10,0.000000,,2013-05-30 06:22:00,
2013-05-29 20:32:00,65.0,61.0,-100.00,NNE,12,14.0,23.0,86,0.00,,,0.10,0.000000,,2013-05-30 06:32:00,
2013-05-29 20:42:00,65.0,61.0,-100.00,NNE,12,14.0,23.0,86,0.00,,,0.10,0.000000,,2013-05-30 06:42:00,
2013-05-29 20:52:00,65.0,61.0,-100.00,NNE,12,14.0,23.0,86,0.00,,,0.10,0.000000,,2013-05-30 06:52:00,
2013-05-29 21:01:00,64.0,59.0,-100.00,NNE,13,15.0,22.0,84,0.00,,,0.08,0.000000,,2013-05-30 07:01:00,
2013-05-29 21:22:00,64.0,59.0,-100.00,NNE,13,15.0,22.0,84,0.00,,,0.08,0.000000,,2013-05-30 07:22:00,
2013-05-29 21:32:00,64.0,59.0,-100.00,NNE,13,15.0,22.0,84,0.00,,,0.08,0.000000,,2013-05-30 07:32:00,
2013-05-29 21:42:00,64.0,59.0,-100.00,NNE,13,15.0,22.0,84,0.00,,,0.08,0.000000,,2013-05-30 07:42:00,
2013-05-29 21:52:00,64.0,59.0,-100.00,NNE,13,15.0,22.0,84,0.00,,,0.08,0.000000,,2013-05-30 07:52:00,
2013-05-29 22:01:00,64.0,59.0,-100.00,NNE,16,13.0,21.0,83,0.00,,,0.07,0.000000,,2013-05-30 08:01:00,
2013-05-29 22:22:00,64.0,59.0,-100.00,NNE,16,13.0,21.0,83,0.00,,,0.07,0.000000,,2013-05-30 08:22:00,
2013-05-29 22:32:00,64.0,59.0,-100.00,NNE,16,13.0,21.0,83,0.00,,,0.07,0.000000,,2013-05-30 08:32:00,
2013-05-29 22:42:00,64.0,59.0,-100.00,NNE,16,13.0,21.0,83,0.00,,,0.07,0.000000,,2013-05-30 08:42:00,
2013-05-29 22:53:00,64.0,59.0,-100.00,NNE,16,13.0,21.0,83,0.00,,,0.07,0.000000,,2013-05-30 08:53:00,
2013-05-29 23:01:00,64.0,57.0,-100.00,NNE,12,11.0,23.0,78,0.00,,,0.07,0.000000,,2013-05-30 09:01:00,
2013-05-29 23:22:00,64.0,57.0,-100.00,NNE,12,11.0,23.0,78,0.00,,,0.07,0.000000,,2013-05-30 09:22:00,
2013-05-29 23:33:00,64.0,57.0,-100.00,NNE,12,11.0,23.0,78,0.00,,,0.07,0.000000,,2013-05-30 09:33:00,
2013-05-29 23:43:00,64.0,57.0,-100.00,NNE,12,11.0,23.0,78,0.00,,,0.07,0.000000,,2013-05-30 09:43:00,
2013-05-29 23:53:00,64.0,57.0,-100.00,NNE,12,11.0,23.0,78,0.00,,,0.07,0.000000,,2013-05-30 09:53:00,